Location: Unspecified
(51.0950°N, 12.9690°E)
Time: 22:42:53
(UTC+00:00)

Cosmos 1459 Rocket - Pass Details

Date: 28 October 2021
Orbit: 936 x 1000 km, 83.0° (Epoch: 01 December)

Event Time Altitude Azimuth Distance (km) Brightness Sun altitude
Rises 18:04:20 0° 181° (S) 3,645 7.0 -21.7°
Reaches altitude 10° 18:06:50 10° 179° (S) 2,693 6.2 -22.1°
Maximum altitude 18:12:58 74° 96° (E) 993 3.8 -23.1°
Drops below altitude 10° 18:19:03 10° 13° (NNE) 2,674 6.2 -24.0°
Sets 18:21:32 0° 12° (NNE) 3,618 7.0 -24.4°
